This is the latest recevied weather packets stored in our database for station/object KD2ZLA. If no packets are shown the sender has not sent any weather packets the latest 10 day(s).
| Time | Temp. | Humidity | Pressure | Rain* | Wind** | Luminosity | Snow |
|---|---|---|---|---|---|---|---|
| 1777522471 | 10.56° C | 97% | 1004.3 hPa | 1.27 mm | - | 0 W/m² | - |
| 1777522169 | 10.56° C | 97% | 1004.5 hPa | 1.78 mm | - | 0 W/m² | - |
| 1777521865 | 10.56° C | 97% | 1004.5 hPa | 1.78 mm | - | 0 W/m² | - |
| 1777521562 | 10.56° C | 98% | 1004.6 hPa | 1.27 mm | - | 0 W/m² | - |
| 1777521260 | 10.56° C | 97% | 1004.6 hPa | 3.56 mm | - | 0 W/m² | - |
| 1777520956 | 10.56° C | 97% | 1004.7 hPa | 7.87 mm | - | 0 W/m² | - |
| 1777520653 | 10.56° C | 97% | 1004.7 hPa | 7.11 mm | - | 0 W/m² | - |
| 1777520349 | 10.56° C | 97% | 1004.7 hPa | 4.32 mm | - | 0 W/m² | - |
| 1777520047 | 10.56° C | 97% | 1004.8 hPa | 3.56 mm | - | 0 W/m² | - |
| 1777519745 | 10.56° C | 97% | 1004.8 hPa | 7.11 mm | - | 0 W/m² | - |
| 1777519441 | 10.56° C | 97% | 1004.9 hPa | 7.87 mm | - | 0 W/m² | - |
| 1777519138 | 10.56° C | 97% | 1004.9 hPa | 4.83 mm | - | 0 W/m² | - |
| 1777518833 | 10.56° C | 97% | 1005 hPa | 4.83 mm | - | 0 W/m² | - |
| 1777518530 | 10.56° C | 97% | 1004.9 hPa | 6.1 mm | - | 0 W/m² | - |
| 1777518225 | 11.11° C | 97% | 1005.1 hPa | 4.32 mm | - | 0 W/m² | - |
| 1777517922 | 11.11° C | 97% | 1005.2 hPa | 2.29 mm | - | 0 W/m² | - |
| 1777517618 | 11.11° C | 97% | 1005.1 hPa | 2.29 mm | - | 0 W/m² | - |
| 1777517316 | 11.11° C | 97% | 1005 hPa | 2.29 mm | - | 0 W/m² | - |
| 1777517015 | 11.11° C | 97% | 1005.3 hPa | 3.56 mm | - | 0 W/m² | - |
| 1777516711 | 11.11° C | 97% | 1005.3 hPa | 3.05 mm | - | 0 W/m² | - |
| 1777516407 | 11.11° C | 97% | 1005.4 hPa | 2.29 mm | - | 0 W/m² | - |
| 1777516103 | 11.11° C | 97% | 1005.4 hPa | 3.56 mm | - | 0 W/m² | - |
| 1777515801 | 11.67° C | 97% | 1005.6 hPa | 3.05 mm | - | 0 W/m² | - |
| 1777515497 | 11.67° C | 97% | 1005.8 hPa | 3.56 mm | - | 0 W/m² | - |
| 1777515194 | 11.67° C | 97% | 1005.9 hPa | 3.56 mm | - | 0 W/m² | - |
* Rain latest hour (hover to see other rain measurements)
** Current wind speed in m/s (hover to see current wind gust speed)